This is the latest recevied weather packets stored in our database for station/object KC9DRE. If no packets are shown the sender has not sent any weather packets the latest 10 day(s).
| Time | Temp. | Humidity | Pressure | Rain* | Wind** | Luminosity | Snow |
|---|---|---|---|---|---|---|---|
| 1787614045 | 22.78° C | 74% | 1018.2 hPa | 0 mm | - | 50 W/m² | - |
| 1787613742 | 22.78° C | 73% | 1018.4 hPa | 0 mm | - | 51 W/m² | - |
| 1787613441 | 23.33° C | 71% | 1018.5 hPa | 0 mm | - | 53 W/m² | - |
| 1787613137 | 23.89° C | 71% | 1018.3 hPa | 0 mm | - | 62 W/m² | - |
| 1787612834 | 23.89° C | 68% | 1018.5 hPa | 0 mm | - | 67 W/m² | - |
| 1787612530 | 25° C | 68% | 1018.3 hPa | 0 mm | - | 69 W/m² | - |
| 1787612225 | 25.56° C | 66% | 1018.4 hPa | 0 mm | - | 74 W/m² | - |
| 1787611921 | 25.56° C | 64% | 1018.3 hPa | 0 mm | - | 95 W/m² | - |
| 1787611617 | 25.56° C | 64% | 1018.3 hPa | 0 mm | - | 109 W/m² | - |
| 1787611313 | 26.11° C | 62% | 1018.1 hPa | 0 mm | - | 76 W/m² | - |
| 1787611008 | 26.67° C | 63% | 1018.3 hPa | 0 mm | - | 113 W/m² | - |
| 1787610704 | 26.11° C | 61% | 1018.4 hPa | 0 mm | - | 156 W/m² | - |
| 1787610399 | 26.11° C | 61% | 1018.3 hPa | 0 mm | - | 161 W/m² | - |
| 1787610098 | 26.11° C | 63% | 1018.2 hPa | 0 mm | - | 175 W/m² | - |
| 1787609797 | 26.11° C | 57% | 1018.1 hPa | 0 mm | - | 106 W/m² | - |
| 1787609493 | 26.67° C | 52% | 1018.3 hPa | 0 mm | - | 94 W/m² | - |
| 1787609192 | 26.67° C | 51% | 1018.1 hPa | 0 mm | - | 136 W/m² | - |
| 1787608887 | 27.22° C | 50% | 1018.3 hPa | 0 mm | - | 207 W/m² | - |
| 1787608586 | 27.22° C | 48% | 1018.1 hPa | 0 mm | - | 228 W/m² | - |
| 1787608282 | 26.67° C | 49% | 1018.2 hPa | 0 mm | - | 226 W/m² | - |
| 1787607979 | 27.22° C | 48% | 1018 hPa | 0 mm | - | 270 W/m² | - |
| 1787607676 | 27.22° C | 51% | 1018 hPa | 0 mm | - | 305 W/m² | - |
| 1787607372 | 26.67° C | 51% | 1018.1 hPa | 0 mm | - | 330 W/m² | - |
| 1787607069 | 26.67° C | 52% | 1018.3 hPa | 0 mm | - | 315 W/m² | - |
| 1787606768 | 26.11° C | 51% | 1018 hPa | 0 mm | - | 301 W/m² | - |
* Rain latest hour (hover to see other rain measurements)
** Current wind speed in m/s (hover to see current wind gust speed)